User: anonymous
Location: Deep South Regional Star Gaze
(30.9929°N, 90.9586°W)
Time: 04:09:05
(UTC-05:00)
Language:

H-2A R/B - Orbit

View from above orbital plane
View from above orbital plane
View from above satellite
View from above satellite

Ground track
Ground track

The orbit data is extracted from the following two-line orbital elements,

1 26899U 01038B   14244.11317510  .00000947  00000-0  52326-3 0   330
2 26899 028.0289 117.0595 7142347 236.9704 273.4097 02.43778532111389
Epoch (UTC): 01 September 2014 02:42:58
Eccentricity: 0.7142347
inclination: 28.0289°
perigee height: 286 km
apogee height: 33598 km
right ascension of ascending node: 117.0595°
argument of perigee: 236.9704°
revolutions per day: 2.43778532
mean anomaly at epoch: 273.4097°
orbit number at epoch: 11138

The dashed part of the orbit path shows where the satellite is in the earth's shadow,  

DLR